Regional Weather Roundup
Issued by NWS

Home | Current Version | Previous Version | Text Only | Print | Product List | Glossary Off
Versions: 1 2 3 4 5 6 7 8 9 10 11 12 13 14 15 16 17 18 19 20 21 22 23 24 25 26 27 28 29 30 31 32 33 34 35 36 37 38 39 40 41 42 43 44 45 46 47 48 49 50

000
ASUS43 KOAX 062202
RWRNE

WEATHER ROUNDUP FOR NEBRASKA
NATIONAL WEATHER SERVICE OMAHA NE
500 PM CDT WED MAY 06 2015

NOTES: SATELLITE DATA IS BEING USED TO AUGMENT CLOUD COVER ABOVE
       12000 FEET.
       "FAIR" INDICATES FEW OR NO CLOUDS BELOW 12,000 FEET WITH NO
       SIGNIFICANT WEATHER AND/OR OBSTRUCTIONS TO VISIBILITY.

  * THESE STATIONS DO NOT REPORT WEATHER SUCH AS RAIN...SNOW OR FOG.

NEZ001>004-019>022-054>056-062300-
NEBRASKA PANHANDLE

CITY           SKY/WX    TMP DP  RH WIND       PRES   REMARKS
SCOTTSBLUFF    LGT RAIN  58  54  86 N10       29.62S
ALLIANCE       CLOUDY    62  52  69 SE14      29.60F
CHADRON        PTSUNNY   65  54  67 W13       29.58F
KIMBALL        CLOUDY    60  52  74 N12       29.63S
SIDNEY         LGT RAIN  56  53  90 E6        29.62F FOG
$$

NEZ057>060-069>072-079>082-062300-
SOUTHWEST NEBRASKA

CITY           SKY/WX    TMP DP  RH WIND       PRES   REMARKS
NORTH PLATTE   PTSUNNY   65  54  67 S12       29.58F
IMPERIAL       PTSUNNY   61  53  75 S10       29.58F
LEXINGTON      PTSUNNY   70  58  64 S12       29.58F
MCCOOK         MOSUNNY   69  53  56 SW14      29.57F
$$

NEZ005>010-023>029-035>040-094-062300-
NORTH CENTRAL NEBRASKA

CITY           SKY/WX    TMP DP  RH WIND       PRES   REMARKS
VALENTINE      TSTM      59  56  89 S9        29.62F
AINSWORTH      PTSUNNY   63  58  83 S3        29.61F
BROKEN BOW     LGT RAIN  71  58  63 S14G23    29.60F
ORD            HVY RAIN  64  60  87 SE14G23   29.62F FOG
$$

NEZ041-046>049-061>064-073>077-083>087-062300-
SOUTH CENTRAL NEBRASKA

CITY           SKY/WX    TMP DP  RH WIND       PRES   REMARKS
GRAND ISLAND   TSTM      64  62  93 SE17G25   29.67F FOG
AURORA         RAIN      66  64  94 S15G21    29.68S
HASTINGS       TSTM      64  62  93 SE18G33   29.64F FOG
HEBRON         CLOUDY    68  61  77 SE21G26   29.68F
HOLDREGE       CLOUDY    63  59  88 SE15G22   29.61S
$$

NEZ011>018-030>034-042>045-062300-
NORTHEAST NEBRASKA

CITY           SKY/WX    TMP DP  RH WIND       PRES   REMARKS
NORFOLK        LGT RAIN  68  62  81 SE18      29.69F
ALBION         CLOUDY    66  61  84 SE14G22   29.67F
BLAIR          CLOUDY    68  60  74 SE18G28   29.77F
COLUMBUS *     PTSUNNY   68  59  73 SE17G30   29.72F
FREMONT        CLOUDY    70  61  73 SE21G29   29.75F
TEKAMAH        CLOUDY    71  62  73 S28G37    29.76F
$$

NEZ050>053-065>068-078-088>093-062300-
SOUTHEAST NEBRASKA

CITY           SKY/WX    TMP DP  RH WIND       PRES   REMARKS
LINCOLN        CLOUDY    71  62  73 S28G38    29.73F
OMAHA EPPLEY   CLOUDY    71  61  70 SE21G32   29.78F
BEATRICE       PTSUNNY   70  62  76 SE22G33   29.73F
FALLS CITY     CLOUDY    71  60  68 S26G41    29.81F
NEBRASKA CITY  CLOUDY    71  58  65 S18G30    29.80F
PLATTSMOUTH    CLOUDY    69  60  74 SE17G26   29.79F
$$

NEZ044-045-051>053-067-062300-
OMAHA AREA

CITY           SKY/WX    TMP DP  RH WIND       PRES   REMARKS
OMAHA EPPLEY   CLOUDY    71  61  70 SE21G32   29.78F
BLAIR          CLOUDY    68  60  74 SE18G28   29.77F
FREMONT        CLOUDY    70  61  73 SE21G29   29.75F
PLATTSMOUTH    CLOUDY    69  60  74 SE17G26   29.79F
WAHOO          CLOUDY    70  61  72 SE21G31   29.74F
$$



USA.gov is the U.S. government's official web portal to all federal, state and local government web resources and services.